• In Portugal
  • List of Countries
  • For 7 days
  • Water Temperature
  • Satellite Maps
  • Weather Map
  • Weather Widgets
  • user-avatar
    Login

    Hourly Weather Fier

    Today, 18 July, Wednesday

    Time Temperature Precipitation Wind Pressure Humidity
    00:00 +22°C° 0.2 mm 3 mps 756 mmHg 92%
    01:00 +21°C° 0 mm 3 mps 756 mmHg 92%
    02:00 +21°C° 0.2 mm 3 mps 756 mmHg 92%
    03:00 +21°C° 0.2 mm 3 mps 756 mmHg 92%
    04:00 +21°C° 0.2 mm 3 mps 756 mmHg 92%
    05:00 +23°C° 0 mm 2 mps 756 mmHg 85%
    06:00 +24°C° 0 mm 2 mps 756 mmHg 79%
    07:00 +26°C° 0 mm 2 mps 756 mmHg 72%
    08:00 +27°C° 0 mm 2 mps 756 mmHg 65%
    09:00 +29°C° 0 mm 3 mps 756 mmHg 59%
    10:00 +30°C° 0 mm 3 mps 756 mmHg 52%
    11:00 +32°C° 0 mm 4 mps 756 mmHg 49%
    12:00 +33°C° 0 mm 5 mps 756 mmHg 47%
    13:00 +33°C° 0 mm 6 mps 756 mmHg 44%
    14:00 +33°C° 0 mm 6 mps 756 mmHg 46%
    15:00 +32°C° 0 mm 6 mps 756 mmHg 47%
    16:00 +32°C° 0 mm 6 mps 756 mmHg 49%
    17:00 +29°C° 0 mm 5 mps 756 mmHg 56%
    18:00 +27°C° 0 mm 4 mps 756 mmHg 63%
    19:00 +25°C° 0 mm 4 mps 757 mmHg 70%
    20:00 +25°C° 0.1 mm 3 mps 757 mmHg 72%
    21:00 +24°C° 0.1 mm 3 mps 757 mmHg 75%
    22:00 +23°C° 0.1 mm 2 mps 757 mmHg 78%
    23:00 +23°C° 0 mm 2 mps 757 mmHg 78%

    Tomorrow, 19 July, Thursday

    Time Temperature Precipitation Wind Pressure Humidity
    00:00 +23°C° 0 mm 2 mps 757 mmHg 78%
    01:00 +21°C° 0 mm 2 mps 757 mmHg 78%
    02:00 +21°C° 0 mm 2 mps 757 mmHg 77%
    03:00 +21°C° 0 mm 2 mps 757 mmHg 76%
    04:00 +21°C° 0 mm 2 mps 757 mmHg 75%
    05:00 +24°C° 0 mm 2 mps 757 mmHg 68%
    06:00 +26°C° 0 mm 2 mps 757 mmHg 61%
    07:00 +27°C° 0 mm 2 mps 757 mmHg 54%
    08:00 +29°C° 0 mm 2 mps 757 mmHg 50%
    09:00 +30°C° 0 mm 3 mps 757 mmHg 46%
    10:00 +31°C° 0 mm 3 mps 757 mmHg 42%
    11:00 +33°C° 0 mm 4 mps 757 mmHg 41%
    12:00 +33°C° 0 mm 5 mps 757 mmHg 40%
    13:00 +34°C° 0 mm 6 mps 757 mmHg 39%
    14:00 +33°C° 0 mm 6 mps 757 mmHg 41%
    15:00 +33°C° 0 mm 6 mps 757 mmHg 43%
    16:00 +32°C° 0 mm 6 mps 756 mmHg 45%
    17:00 +30°C° 0 mm 5 mps 757 mmHg 52%
    18:00 +28°C° 0 mm 4 mps 757 mmHg 59%
    19:00 +26°C° 0 mm 3 mps 757 mmHg 66%
    20:00 +25°C° 0 mm 3 mps 757 mmHg 67%
    21:00 +25°C° 0 mm 3 mps 757 mmHg 69%
    22:00 +24°C° 0 mm 2 mps 758 mmHg 71%
    23:00 +24°C° 0 mm 2 mps 758 mmHg 71%

    Day after tomorrow, 20 July, Friday

    Time Temperature Precipitation Wind Pressure Humidity
    00:00 +24°C° 0 mm 2 mps 757 mmHg 71%
    01:00 +23°C° 0 mm 2 mps 757 mmHg 72%
    02:00 +23°C° 0 mm 2 mps 757 mmHg 72%
    03:00 +23°C° 0 mm 2 mps 757 mmHg 72%
    04:00 +23°C° 0 mm 2 mps 757 mmHg 73%
    05:00 +25°C° 0 mm 2 mps 757 mmHg 68%
    06:00 +26°C° 0 mm 2 mps 757 mmHg 63%
    07:00 +28°C° 0 mm 1 mps 757 mmHg 59%
    08:00 +29°C° 0 mm 2 mps 757 mmHg 54%
    09:00 +31°C° 0 mm 3 mps 757 mmHg 50%
    10:00 +33°C° 0 mm 3 mps 757 mmHg 45%
    11:00 +34°C° 0 mm 4 mps 757 mmHg 45%
    12:00 +34°C° 0 mm 4 mps 757 mmHg 44%
    13:00 +35°C° 0 mm 5 mps 757 mmHg 43%
    14:00 +34°C° 0 mm 5 mps 757 mmHg 45%
    15:00 +34°C° 0 mm 5 mps 757 mmHg 46%
    16:00 +34°C° 0 mm 5 mps 757 mmHg 48%
    17:00 +32°C° 0 mm 4 mps 757 mmHg 55%
    18:00 +29°C° 0 mm 4 mps 757 mmHg 62%
    19:00 +27°C° 0 mm 3 mps 757 mmHg 69%
    20:00 +26°C° 0 mm 3 mps 757 mmHg 71%
    21:00 +25°C° 0 mm 2 mps 758 mmHg 73%
    22:00 +25°C° 0 mm 2 mps 758 mmHg 76%
    23:00 +24°C° 0 mm 2 mps 758 mmHg 76%

    21 July, Saturday

    Time Temperature Precipitation Wind Pressure Humidity
    00:00 +24°C° 0 mm 2 mps 758 mmHg 76%
    01:00 +24°C° 0 mm 2 mps 758 mmHg 76%
    02:00 +24°C° 0 mm 2 mps 758 mmHg 76%
    03:00 +24°C° 0 mm 2 mps 758 mmHg 76%
    04:00 +24°C° 0 mm 2 mps 758 mmHg 75%
    05:00 +25°C° 0 mm 1 mps 758 mmHg 69%
    06:00 +27°C° 0 mm 1 mps 758 mmHg 63%
    07:00 +29°C° 0 mm 1 mps 758 mmHg 57%
    08:00 +30°C° 0 mm 1 mps 758 mmHg 51%
    09:00 +32°C° 0 mm 2 mps 758 mmHg 44%
    10:00 +34°C° 0 mm 2 mps 758 mmHg 37%
    11:00 +35°C° 0 mm 2 mps 758 mmHg 35%
    12:00 +36°C° 0 mm 3 mps 757 mmHg 34%
    13:00 +37°C° 0 mm 3 mps 757 mmHg 32%
    14:00 +36°C° 0 mm 3 mps 757 mmHg 33%
    15:00 +36°C° 0 mm 3 mps 757 mmHg 34%
    16:00 +36°C° 0 mm 2 mps 756 mmHg 34%
    17:00 +34°C° 0 mm 2 mps 757 mmHg 40%
    18:00 +31°C° 0 mm 1 mps 757 mmHg 46%
    19:00 +28°C° 0 mm 1 mps 757 mmHg 51%
    20:00 +28°C° 0 mm 1 mps 757 mmHg 52%
    21:00 +27°C° 0 mm 2 mps 757 mmHg 52%
    22:00 +26°C° 0 mm 2 mps 757 mmHg 52%
    23:00 +26°C° 0 mm 2 mps 757 mmHg 52%

    22 July, Sunday

    Time Temperature Precipitation Wind Pressure Humidity
    00:00 +26°C° 0 mm 3 mps 757 mmHg 51%
    01:00 +26°C° 0 mm 3 mps 757 mmHg 50%
    02:00 +26°C° 0 mm 3 mps 756 mmHg 50%
    03:00 +26°C° 0 mm 3 mps 756 mmHg 49%
    04:00 +25°C° 0 mm 3 mps 756 mmHg 49%
    05:00 +27°C° 0 mm 3 mps 756 mmHg 48%
    06:00 +29°C° 0 mm 3 mps 756 mmHg 46%
    07:00 +31°C° 0 mm 3 mps 755 mmHg 45%
    08:00 +34°C° 0 mm 4 mps 755 mmHg 40%
    09:00 +36°C° 0 mm 4 mps 755 mmHg 35%
    10:00 +39°C° 0 mm 5 mps 755 mmHg 30%
    11:00 +39°C° 0 mm 6 mps 754 mmHg 29%
    12:00 +40°C° 0 mm 6 mps 754 mmHg 28%
    13:00 +40°C° 0 mm 7 mps 753 mmHg 27%
    14:00 +40°C° 0 mm 8 mps 753 mmHg 29%
    15:00 +39°C° 0 mm 8 mps 752 mmHg 31%
    16:00 +39°C° 0 mm 8 mps 752 mmHg 33%
    17:00 +35°C° 0 mm 8 mps 752 mmHg 41%
    18:00 +33°C° 0 mm 7 mps 752 mmHg 49%
    19:00 +30°C° 0 mm 7 mps 752 mmHg 58%
    20:00 +29°C° 0.1 mm 7 mps 752 mmHg 62%
    21:00 +28°C° 0.1 mm 7 mps 752 mmHg 66%
    22:00 +26°C° 0.1 mm 7 mps 752 mmHg 70%
    23:00 +26°C° 0.9 mm 6 mps 752 mmHg 72%

    23 July, Monday

    Time Temperature Precipitation Wind Pressure Humidity
    00:00 +25°C° 0.9 mm 4 mps 752 mmHg 75%
    01:00 +24°C° 0.9 mm 3 mps 752 mmHg 77%
    02:00 +24°C° 0.6 mm 3 mps 752 mmHg 79%
    03:00 +24°C° 0.6 mm 3 mps 752 mmHg 81%
    04:00 +22°C° 0.6 mm 3 mps 752 mmHg 83%
    05:00 +24°C° 0.3 mm 2 mps 752 mmHg 78%
    06:00 +26°C° 0.3 mm 2 mps 752 mmHg 73%
    07:00 +27°C° 0.3 mm 2 mps 752 mmHg 68%
    08:00 +28°C° 0.4 mm 3 mps 752 mmHg 63%
    09:00 +29°C° 0.4 mm 3 mps 752 mmHg 59%
    10:00 +30°C° 0.4 mm 3 mps 751 mmHg 54%
    11:00 +30°C° 0.2 mm 3 mps 751 mmHg 53%
    12:00 +31°C° 0.2 mm 3 mps 751 mmHg 52%
    13:00 +31°C° 0.2 mm 3 mps 751 mmHg 50%
    14:00 +31°C° 0.3 mm 3 mps 751 mmHg 52%
    15:00 +30°C° 0.3 mm 3 mps 751 mmHg 54%
    16:00 +30°C° 0.3 mm 3 mps 751 mmHg 56%
    17:00 +29°C° 0.2 mm 3 mps 751 mmHg 62%
    18:00 +27°C° 0.2 mm 2 mps 751 mmHg 68%
    19:00 +26°C° 0.2 mm 2 mps 752 mmHg 74%
    20:00 +25°C° 0.1 mm 2 mps 752 mmHg 76%
    21:00 +25°C° 0.1 mm 2 mps 752 mmHg 79%
    22:00 +24°C° 0.1 mm 1 mps 752 mmHg 82%
    23:00 +24°C° 0 mm 1 mps 752 mmHg 82%
    Show more